TimeEDT,TemperatureF,Dew PointF,Humidity,Sea Level PressureIn,VisibilityMPH,Wind Direction,Wind SpeedMPH,Gust SpeedMPH,PrecipitationIn,Events,Conditions,WindDirDegrees,DateUTC
12:15 AM,71.6,68.0,88,30.12,10.0,Calm,Calm,-,N/A,,Clear,0,2013-05-18 04:15:00
12:35 AM,69.8,66.2,88,30.12,10.0,Calm,Calm,-,N/A,,Clear,0,2013-05-18 04:35:00
12:55 AM,68.0,66.2,94,30.12,10.0,Calm,Calm,-,N/A,,Clear,0,2013-05-18 04:55:00
1:15 AM,68.0,66.2,94,30.11,10.0,Calm,Calm,-,N/A,,Clear,0,2013-05-18 05:15:00
1:35 AM,68.0,66.2,94,30.11,10.0,Calm,Calm,-,N/A,,Clear,0,2013-05-18 05:35:00
1:55 AM,68.0,66.2,94,30.11,10.0,SE,3.5,-,N/A,,Clear,140,2013-05-18 05:55:00
2:15 AM,68.0,66.2,94,30.10,10.0,Calm,Calm,-,N/A,,Clear,0,2013-05-18 06:15:00
2:35 AM,66.2,66.2,100,30.10,9.0,Calm,Calm,-,N/A,,Clear,0,2013-05-18 06:35:00
2:55 AM,66.2,66.2,100,30.10,8.0,Calm,Calm,-,N/A,,Clear,0,2013-05-18 06:55:00
3:15 AM,64.4,64.4,100,30.10,8.0,Calm,Calm,-,N/A,,Clear,0,2013-05-18 07:15:00
3:35 AM,66.2,66.2,100,30.10,7.0,Calm,Calm,-,N/A,,Clear,0,2013-05-18 07:35:00
3:55 AM,66.2,66.2,100,30.10,7.0,Calm,Calm,-,N/A,,Clear,0,2013-05-18 07:55:00
4:15 AM,64.4,64.4,100,30.10,3.0,Calm,Calm,-,N/A,,Clear,0,2013-05-18 08:15:00
4:35 AM,64.4,64.4,100,30.10,3.0,Calm,Calm,-,N/A,,Clear,0,2013-05-18 08:35:00
4:55 AM,62.6,62.6,100,30.10,2.0,Calm,Calm,-,N/A,,Clear,0,2013-05-18 08:55:00
5:15 AM,64.4,64.4,100,30.10,2.0,Calm,Calm,-,N/A,,Clear,0,2013-05-18 09:15:00
5:35 AM,62.6,62.6,100,30.09,2.5,Calm,Calm,-,N/A,,Clear,0,2013-05-18 09:35:00
5:55 AM,62.6,62.6,100,30.10,5.0,Calm,Calm,-,N/A,,Clear,0,2013-05-18 09:55:00
6:15 AM,62.6,62.6,100,30.10,3.0,Calm,Calm,-,N/A,,Clear,0,2013-05-18 10:15:00
6:35 AM,62.6,62.6,100,30.10,1.2,Calm,Calm,-,N/A,,Clear,0,2013-05-18 10:35:00
6:50 AM,62.6,62.6,100,30.10,7.0,ESE,9.2,-,N/A,,Clear,110,2013-05-18 10:50:00
7:50 AM,66.2,66.2,100,30.14,7.0,Calm,Calm,-,N/A,,Clear,0,2013-05-18 11:50:00
8:50 AM,73.4,68.0,83,30.15,7.0,SSE,4.6,-,N/A,,Clear,150,2013-05-18 12:50:00
9:50 AM,77.0,68.0,74,30.14,7.0,South,8.1,-,N/A,,Clear,170,2013-05-18 13:50:00
10:50 AM,80.6,69.8,70,30.13,7.0,Variable,4.6,-,N/A,,Partly Cloudy,0,2013-05-18 14:50:00
11:50 AM,80.6,68.0,65,30.12,7.0,SE,5.8,-,N/A,,Scattered Clouds,140,2013-05-18 15:50:00
12:50 PM,84.2,68.0,58,30.12,7.0,Calm,Calm,-,N/A,,Mostly Cloudy,0,2013-05-18 16:50:00
1:50 PM,86.0,66.2,51,30.10,7.0,SSE,3.5,-,N/A,,Mostly Cloudy,160,2013-05-18 17:50:00
2:50 PM,86.0,66.2,51,30.08,7.0,South,5.8,-,N/A,,Mostly Cloudy,180,2013-05-18 18:50:00
3:50 PM,86.0,66.2,51,30.06,7.0,ESE,10.4,-,N/A,,Mostly Cloudy,120,2013-05-18 19:50:00
4:50 PM,86.0,68.0,55,30.03,7.0,SSE,10.4,-,N/A,,Scattered Clouds,150,2013-05-18 20:50:00
5:50 PM,84.2,68.0,58,30.03,7.0,ESE,12.7,-,N/A,,Clear,120,2013-05-18 21:50:00
6:50 PM,80.6,66.2,61,30.03,7.0,SE,16.1,-,N/A,,Clear,140,2013-05-18 22:50:00
7:50 PM,77.0,66.2,69,30.05,7.0,East,17.3,-,N/A,,Clear,100,2013-05-18 23:50:00
8:15 PM,77.0,68.0,74,30.06,10.0,ENE,5.8,-,N/A,Thunderstorm,Partly Cloudy,70,2013-05-19 00:15:00
8:35 PM,77.0,68.0,74,30.08,10.0,North,4.6,-,N/A,Thunderstorm,Thunderstorm,360,2013-05-19 00:35:00
8:55 PM,73.4,71.6,94,30.09,0.5,East,8.1,21.9,0.46,Rain-Thunderstorm,Heavy Rain,80,2013-05-19 00:55:00
9:15 PM,71.6,69.8,94,30.09,3.0,ESE,6.9,-,0.02,Rain-Thunderstorm,Light Rain,110,2013-05-19 01:15:00
9:35 PM,69.8,68.0,94,30.10,7.0,Calm,Calm,-,0.03,Rain-Thunderstorm,Light Rain,0,2013-05-19 01:35:00
9:55 PM,69.8,68.0,94,30.12,1.5,NE,3.5,-,0.08,Rain,Light Rain,40,2013-05-19 01:55:00
10:15 PM,69.8,69.8,100,30.13,3.0,ENE,3.5,-,0.02,Rain,Light Rain,60,2013-05-19 02:15:00
10:35 PM,69.8,69.8,100,30.12,1.2,Calm,Calm,-,0.15,Rain-Thunderstorm,Heavy Rain,0,2013-05-19 02:35:00
10:55 PM,69.8,69.8,100,30.11,4.0,SE,3.5,-,0.20,Rain,Light Rain,130,2013-05-19 02:55:00
11:15 PM,69.8,69.8,100,30.10,10.0,SE,4.6,-,N/A,,Scattered Clouds,130,2013-05-19 03:15:00
11:35 PM,69.8,69.8,100,30.10,9.0,Calm,Calm,-,N/A,,Partly Cloudy,0,2013-05-19 03:35:00
11:55 PM,68.0,68.0,100,30.10,7.0,Calm,Calm,-,N/A,,Clear,0,2013-05-19 03:55:00